TimeEDT,TemperatureF,Dew PointF,Humidity,Sea Level PressureIn,VisibilityMPH,Wind Direction,Wind SpeedMPH,Gust SpeedMPH,PrecipitationIn,Events,Conditions,WindDirDegrees,DateUTC
12:15 AM,63.9,63.5,99,29.99,10.0,Calm,Calm,-,N/A,,Clear,0,2013-10-17 04:15:00
12:35 AM,63.5,63.3,99,29.98,10.0,Calm,Calm,-,N/A,,Clear,0,2013-10-17 04:35:00
12:55 AM,61.9,61.9,100,29.98,10.0,Calm,Calm,-,N/A,,Clear,0,2013-10-17 04:55:00
1:15 AM,62.4,62.4,100,29.98,10.0,Calm,Calm,-,N/A,,Clear,0,2013-10-17 05:15:00
1:35 AM,62.4,62.4,100,29.98,10.0,Calm,Calm,-,N/A,,Clear,0,2013-10-17 05:35:00
1:55 AM,62.2,62.2,100,29.97,10.0,Calm,Calm,-,N/A,,Clear,0,2013-10-17 05:55:00
2:15 AM,61.5,61.5,100,29.97,10.0,Calm,Calm,-,N/A,,Clear,0,2013-10-17 06:15:00
2:35 AM,60.8,60.8,100,29.97,10.0,Calm,Calm,-,N/A,,Clear,0,2013-10-17 06:35:00
2:55 AM,61.3,61.2,99,29.96,10.0,Calm,Calm,-,N/A,,Clear,0,2013-10-17 06:55:00
3:15 AM,60.6,60.6,100,29.96,10.0,Calm,Calm,-,N/A,,Clear,0,2013-10-17 07:15:00
3:35 AM,59.9,59.9,100,29.96,10.0,Calm,Calm,-,N/A,,Clear,0,2013-10-17 07:35:00
3:55 AM,59.9,59.9,100,29.96,10.0,Calm,Calm,-,N/A,,Clear,0,2013-10-17 07:55:00
4:15 AM,59.4,59.4,100,29.95,5.0,Calm,Calm,-,N/A,,Clear,0,2013-10-17 08:15:00
4:35 AM,60.1,60.1,100,29.96,10.0,Calm,Calm,-,N/A,,Clear,0,2013-10-17 08:35:00
4:55 AM,59.4,59.4,100,29.96,7.0,Calm,Calm,-,N/A,,Clear,0,2013-10-17 08:55:00
5:15 AM,58.8,58.8,100,29.96,5.0,Calm,Calm,-,N/A,,Clear,0,2013-10-17 09:15:00
5:35 AM,59.5,59.5,100,29.97,10.0,Calm,Calm,-,N/A,,Clear,0,2013-10-17 09:35:00
5:55 AM,59.5,59.5,100,29.97,10.0,Calm,Calm,-,N/A,,Clear,0,2013-10-17 09:55:00
6:15 AM,58.6,58.6,100,29.97,10.0,Calm,Calm,-,N/A,,Clear,0,2013-10-17 10:15:00
6:35 AM,59.0,59.0,100,29.97,10.0,Calm,Calm,-,N/A,,Mostly Cloudy,0,2013-10-17 10:35:00
6:55 AM,58.6,58.6,100,29.97,10.0,Calm,Calm,-,N/A,,Scattered Clouds,0,2013-10-17 10:55:00
7:15 AM,58.6,58.6,100,29.97,10.0,Calm,Calm,-,N/A,,Clear,0,2013-10-17 11:15:00
7:35 AM,58.3,58.3,100,29.98,10.0,Calm,Calm,-,N/A,,Scattered Clouds,0,2013-10-17 11:35:00
7:55 AM,59.0,59.0,100,29.98,7.0,Calm,Calm,-,N/A,,Mostly Cloudy,0,2013-10-17 11:55:00
8:15 AM,59.0,59.0,100,29.98,7.0,Calm,Calm,-,N/A,,Scattered Clouds,0,2013-10-17 12:15:00
8:35 AM,61.5,61.5,100,29.99,10.0,Calm,Calm,-,N/A,,Clear,0,2013-10-17 12:35:00
8:55 AM,65.3,64.9,99,29.99,10.0,Calm,Calm,-,N/A,,Clear,0,2013-10-17 12:55:00
9:15 AM,67.8,66.7,96,30.00,10.0,Calm,Calm,-,N/A,,Clear,0,2013-10-17 13:15:00
9:35 AM,71.1,68.0,90,30.00,10.0,WSW,4.6,-,N/A,,Clear,240,2013-10-17 13:35:00
9:55 AM,73.0,62.4,69,30.00,10.0,SW,5.8,-,N/A,,Clear,230,2013-10-17 13:55:00
10:15 AM,74.3,61.7,65,30.00,10.0,SW,6.9,-,N/A,,Clear,230,2013-10-17 14:15:00
10:35 AM,75.6,62.4,64,30.01,10.0,WSW,8.1,-,N/A,,Clear,240,2013-10-17 14:35:00
10:55 AM,76.8,62.6,61,30.00,10.0,SSW,4.6,-,N/A,,Clear,210,2013-10-17 14:55:00
11:15 AM,77.5,60.8,56,30.00,10.0,WSW,8.1,-,N/A,,Clear,250,2013-10-17 15:15:00
11:35 AM,78.8,60.4,53,29.99,10.0,SW,6.9,-,N/A,,Clear,220,2013-10-17 15:35:00
11:55 AM,79.5,60.1,51,29.99,10.0,WSW,8.1,-,N/A,,Clear,250,2013-10-17 15:55:00
12:15 PM,80.6,60.3,50,29.98,10.0,SSW,8.1,-,N/A,,Scattered Clouds,200,2013-10-17 16:15:00
12:35 PM,80.4,59.4,49,29.97,10.0,WSW,5.8,-,N/A,,Scattered Clouds,240,2013-10-17 16:35:00
12:55 PM,81.3,59.2,47,29.97,10.0,SW,6.9,-,N/A,,Mostly Cloudy,220,2013-10-17 16:55:00
1:15 PM,82.6,58.6,44,29.96,10.0,SW,6.9,-,N/A,,Mostly Cloudy,230,2013-10-17 17:15:00
1:35 PM,82.0,58.5,45,29.95,10.0,West,8.1,-,N/A,,Mostly Cloudy,280,2013-10-17 17:35:00
1:55 PM,82.2,59.0,45,29.94,10.0,SW,4.6,-,N/A,,Scattered Clouds,220,2013-10-17 17:55:00
2:15 PM,82.9,58.6,44,29.92,10.0,West,8.1,-,N/A,,Mostly Cloudy,260,2013-10-17 18:15:00
2:35 PM,83.5,58.1,42,29.92,10.0,Calm,Calm,-,N/A,,Scattered Clouds,0,2013-10-17 18:35:00
2:55 PM,83.7,58.1,42,29.91,10.0,WNW,6.9,-,N/A,,Scattered Clouds,290,2013-10-17 18:55:00
3:15 PM,82.6,56.7,41,29.91,10.0,WSW,5.8,-,N/A,,Scattered Clouds,240,2013-10-17 19:15:00
3:35 PM,82.4,57.2,42,29.90,10.0,West,6.9,-,N/A,,Scattered Clouds,260,2013-10-17 19:35:00
3:55 PM,84.2,55.9,38,29.90,10.0,SW,6.9,-,N/A,,Scattered Clouds,220,2013-10-17 19:55:00
4:15 PM,85.1,55.4,36,29.90,10.0,WSW,9.2,-,N/A,,Scattered Clouds,240,2013-10-17 20:15:00
4:35 PM,83.1,56.3,40,29.90,10.0,SW,5.8,-,N/A,,Scattered Clouds,220,2013-10-17 20:35:00
4:55 PM,81.9,56.5,42,29.90,10.0,SW,4.6,-,N/A,,Scattered Clouds,220,2013-10-17 20:55:00
5:15 PM,83.7,56.7,40,29.89,10.0,West,6.9,-,N/A,,Scattered Clouds,260,2013-10-17 21:15:00
5:35 PM,83.3,56.8,40,29.89,10.0,WSW,5.8,-,N/A,,Scattered Clouds,250,2013-10-17 21:35:00
5:55 PM,81.5,57.6,44,29.90,10.0,Calm,Calm,-,N/A,,Clear,0,2013-10-17 21:55:00
6:15 PM,80.8,58.3,46,29.90,10.0,Calm,Calm,-,N/A,,Scattered Clouds,0,2013-10-17 22:15:00
6:35 PM,79.2,59.2,50,29.90,10.0,Calm,Calm,-,N/A,,Mostly Cloudy,0,2013-10-17 22:35:00
6:55 PM,76.6,61.9,60,29.90,10.0,Calm,Calm,-,N/A,,Scattered Clouds,0,2013-10-17 22:55:00
7:15 PM,73.9,61.9,66,29.90,10.0,Calm,Calm,-,N/A,,Scattered Clouds,0,2013-10-17 23:15:00
7:35 PM,72.7,61.9,69,29.91,10.0,Calm,Calm,-,N/A,,Mostly Cloudy,0,2013-10-17 23:35:00
7:55 PM,72.0,61.9,70,29.91,10.0,Calm,Calm,-,N/A,,Overcast,0,2013-10-17 23:55:00
8:15 PM,71.6,62.2,72,29.91,10.0,Calm,Calm,-,N/A,,Mostly Cloudy,0,2013-10-18 00:15:00
8:35 PM,70.7,63.0,76,29.91,10.0,Calm,Calm,-,N/A,,Scattered Clouds,0,2013-10-18 00:35:00
8:55 PM,70.0,62.2,76,29.92,10.0,Calm,Calm,-,N/A,,Clear,0,2013-10-18 00:55:00
9:15 PM,69.8,62.4,77,29.92,10.0,Calm,Calm,-,N/A,,Clear,0,2013-10-18 01:15:00
9:35 PM,68.7,66.2,92,29.92,10.0,Calm,Calm,-,N/A,,Clear,0,2013-10-18 01:35:00
9:55 PM,68.5,66.6,93,29.92,10.0,Calm,Calm,-,N/A,,Clear,0,2013-10-18 01:55:00
10:15 PM,68.0,66.7,96,29.93,10.0,Calm,Calm,-,N/A,,Mostly Cloudy,0,2013-10-18 02:15:00
10:35 PM,69.8,63.9,81,29.93,10.0,SSE,4.6,-,N/A,,Scattered Clouds,160,2013-10-18 02:35:00
10:55 PM,70.3,64.0,80,29.92,10.0,Calm,Calm,-,N/A,,Clear,0,2013-10-18 02:55:00
11:15 PM,69.8,68.0,94,29.93,10.0,Calm,Calm,-,N/A,,Mostly Cloudy,0,2013-10-18 03:15:00
11:35 PM,71.6,69.3,92,29.92,10.0,South,4.6,-,N/A,,Overcast,180,2013-10-18 03:35:00
11:55 PM,72.5,69.6,91,29.92,10.0,South,4.6,-,N/A,,Overcast,180,2013-10-18 03:55:00